Flag for U.S.A. Weather past 2 weeks in Virginia Beach, Virginia, U.S.A.

Now
43 °F

Passing clouds.


Feels Like: 36 °F
Forecast: 32 / 46 °F
Wind: 14 mph from North

Location: Virginia Beach - Oceana

Current Time: Dec 19, 2014 at 11:12:43 AM

Latest Report: Dec 19, 2014 at 10:56 AM


Visibility: 10 mi

Pressure: 30.16 "Hg

Humidity: 56%

Dew point: 28 °F

Location of Virginia BeachLocation

Historic Weather in Virginia Beach — Graph

°F

Virginia Beach temperature yesterday

Maximum temperature yesterday: 47 °F (at 1:56 PM)
Minimum temperature yesterday: 35 °F (at 8:56 PM)
Average temperature yesterday: 41 °F

Past Weeks' High & Low Weather Summary

 TemperatureHumidityPressure
High65 °F (Dec 6, 1:56 PM)97% (Dec 16, 4:56 AM)30.50 "Hg (Dec 16, 4:56 AM)
Low29 °F (Dec 13, 3:56 AM)29% (Dec 12, 11:56 AM)29.80 "Hg (Dec 10, 1:56 PM)
Average45 °F71%30.10 "Hg
* Reported Dec 4 9:56 AM — Dec 19 9:56 AM, Virginia Beach, Weather by CustomWeather, © 2014

Note: Actual official high and low records may vary slightly from our data, if they occured in-between our weather recording intervals... More about our weather records

Advertising

Virginia Beach weather history for previous 24 hours

 ConditionsComfort  
Time TempWeatherWind HumidityBarometerVisibility
9:56 AM
Dec 19
42 °FPassing clouds.12 mph60%30.18 "Hg10 mi
8:56 AM41 °FSunny.13 mph65%30.15 "Hg10 mi
7:56 AM35 °FPassing clouds.3 mph75%30.14 "Hg10 mi
6:56 AM32 °FPassing clouds.3 mph82%30.13 "Hg10 mi
5:56 AM30 °FClear.No wind85%30.10 "Hg10 mi
4:56 AM32 °FPassing clouds.No wind82%30.10 "Hg10 mi
3:56 AM33 °FPassing clouds.No wind82%30.10 "Hg10 mi
2:56 AM36 °FPassing clouds.No wind75%30.10 "Hg10 mi
1:56 AM36 °FPassing clouds.3 mph75%30.11 "Hg10 mi
12:56 AM39 °FOvercast.3 mph76%30.10 "Hg10 mi
11:56 PM
Dec 18
40 °FMostly cloudy.No wind73%30.10 "Hg10 mi
10:56 PM39 °FOvercast.3 mph73%30.10 "Hg10 mi
9:56 PM36 °FOvercast.No wind75%30.10 "Hg10 mi
8:56 PM35 °FPartly cloudy.No wind78%30.11 "Hg10 mi
7:56 PM36 °FPassing clouds.No wind75%30.12 "Hg10 mi
6:56 PM36 °FPassing clouds.No wind70%30.11 "Hg10 mi
5:56 PM39 °FPassing clouds.No wind67%30.09 "Hg10 mi
4:56 PM41 °FPartly cloudy.3 mph58%30.09 "Hg10 mi
3:56 PM45 °FBroken clouds.6 mph49%30.09 "Hg10 mi
2:56 PM46 °FBroken clouds.8 mph48%30.09 "Hg10 mi
1:56 PM47 °FPassing clouds.12 mph44%30.09 "Hg10 mi
12:56 PM45 °FPassing clouds.12 mph48%30.11 "Hg10 mi
11:56 AM45 °FPassing clouds.10 mph48%30.13 "Hg10 mi
Weather by CustomWeather, © 2014

See weather overviewHow to use our weather pages